Wind_Speed
8 9 3 2 3 2 3 4 7 8 8 12 13 11 12 11 10 9 8 10 11 11 9 6 5 3 2 1 1 4 4 9 5 9 10 6 8 7 4 3 5 4 1
10 10 3 3 3 3 3 4 4 6 10 15 13 13 11 10 9 13 14 13 13 13 13 11 10 8 6 4 4 1 1 5 4 3 5 6 7 5 2 1 1 4 3
8 8 8 6 5 4 4 3 2 4 3 8 9 11 12 13 14 17 17 15 13 12 13 14 15 12 10 9 8 7 5 3 2 2 1 2 1 0 2 2 3 4 6
5 7 8 9 9 8 7 6 2 3 5 5 8 14 17 16 18 15 13 16 17 18 16 15 17 17 16 15 14 12 10 10 7 5 5 2 2 3 4 5 4 3 5
3 5 6 8 9 10 11 11 8 5 5 6 10 11 12 15 16 17 16 16 17 18 19 18 17 18 19 19 19 16 13 14 11 8 8 6 6 5 6 7 9 6 7
3 5 7 5 7 8 9 10 10 8 6 7 9 10 13 15 15 17 18 19 20 20 20 20 21 22 21 22 22 21 19 17 15 13 12 11 10 8 8 10 10 11 10
5 6 4 5 8 7 8 9 9 8 7 7 9 11 16 15 16 19 21 22 21 23 23 21 20 20 20 20 20 24 25 21 18 18 15 13 11 11 9 11 10 10 12
1 4 7 6 6 8 6 6 7 7 7 7 9 11 14 16 19 18 21 26 27 25 24 22 23 22 20 21 23 25 26 26 23 20 16 16 15 13 11 11 13 12 12
4 7 10 12 13 16 11 11 12 8 9 11 11 12 14 18 23 22 17 16 21 21 21 22 21 23 22 20 21 25 27 28 26 24 20 19 17 15 13 14 14 15 15
17 14 15 18 21 27 25 18 19 18 15 16 18 16 16 18 20 20 22 21 22 21 22 24 23 25 18 19 23 26 29 29 28 26 24 22 20 17 16 16 16 16 16
25 21 19 20 25 28 34 26 28 27 22 21 20 22 20 20 21 20 21 22 22 23 24 25 24 19 16 20 20 24 29 33 32 28 25 23 21 20 17 17 16 16 16
28 30 30 26 25 28 33 38 34 36 32 27 24 25 23 21 22 23 23 21 20 20 21 23 23 24 22 20 22 21 28 34 35 29 25 23 22 22 18 16 16 17 16
39 39 36 36 36 33 37 43 43 44 38 35 32 28 25 21 25 25 24 24 23 21 22 21 21 24 27 23 19 17 19 24 26 23 22 21 20 20 18 16 18 17 16
44 46 48 46 44 44 44 46 54 48 40 38 33 30 29 23 23 25 25 27 27 26 26 23 21 23 25 25 22 19 18 18 18 20 22 21 22 18 17 18 19 16 17
52 52 53 56 54 48 48 50 53 51 42 40 36 33 30 28 24 24 25 30 27 27 28 26 22 20 22 25 24 24 22 21 20 21 21 21 22 20 20 19 19 17 18
42 46 52 57 60 60 62 62 58 49 47 42 42 42 33 35 33 28 27 31 33 31 31 29 27 22 23 25 25 24 24 23 21 22 23 23 22 24 22 20 18 18 19
43 44 46 45 46 50 53 59 61 60 58 51 57 42 35 33 34 33 33 31 33 33 29 32 32 30 26 25 25 22 20 20 22 22 22 23 23 22 21 19 19 19 21
40 43 43 45 45 50 55 55 51 54 62 60 47 46 41 39 39 30 36 25 31 34 34 34 35 34 27 26 27 25 22 20 22 23 24 25 26 25 23 21 21 22 22
45 45 46 45 47 48 49 51 51 52 55 62 59 47 42 43 42 44 37 40 44 41 43 41 39 36 32 27 27 24 24 22 21 22 22 24 25 27 27 23 22 24 24
51 49 43 44 46 46 45 48 51 52 54 57 61 61 50 47 50 51 47 45 47 53 56 53 46 41 38 28 26 23 24 24 24 24 23 24 26 26 23 21 24 25 28
52 49 44 41 42 46 47 46 48 49 51 49 53 58 64 60 62 57 53 52 56 65 64 61 55 45 42 34 31 31 30 29 27 25 28 27 25 24 22 22 27 30 33
39 35 39 42 41 43 44 44 40 41 44 41 42 47 56 58 59 61 55 52 49 46 46 65 64 55 46 39 37 35 33 31 33 22 31 41 28 29 26 23 22 32 32
36 33 34 37 38 39 40 40 37 36 36 33 39 43 42 47 44 45 40 43 47 40 52 59 62 49 51 46 47 38 37 26 19 20 23 19 26 26 25 22 20 22 26
32 31 32 32 32 34 35 35 35 36 38 34 33 34 37 39 43 43 33 35 35 44 66 67 61 53 59 54 48 44 36 16 14 15 22 18 21 26 30 27 25 25 27
27 30 32 30 28 31 31 32 32 32 35 36 32 34 29 27 36 39 37 36 31 34 34 32 48 55 32 51 50 42 33 17 21 20 21 26 29 28 30 32 32 29 28
27 29 28 26 27 27 28 30 30 31 29 30 32 32 33 29 33 31 32 30 20 23 41 30 24 21 17 20 24 25 17 23 25 26 28 31 35 36 36 37 39 35 33
Wind_Direction
36 53 3 35 47 21 299 242 235 236 206 208 224 211 203 204 208 212 215 221 218 218 209 212 211 211 211 298 150 126 112 103 106 107 118 114 112 86 66 83 76 74 81
6 48 34 33 21 6 347 309 284 283 245 213 219 217 209 213 222 224 223 221 224 217 219 218 225 225 221 228 256 261 119 101 136 96 118 110 132 102 129 106 314 316 272
355 12 60 41 13 357 325 338 297 260 226 190 209 232 223 220 228 225 223 217 219 226 229 225 230 235 233 229 229 247 248 241 200 199 177 114 219 35 260 289 314 258 257
26 21 34 55 41 18 356 331 296 274 236 201 207 231 240 237 243 247 227 231 233 236 232 231 228 233 237 235 238 232 246 241 241 251 264 299 275 240 260 276 296 276 269
13 14 358 23 39 39 28 11 355 311 257 237 226 233 242 247 249 249 241 230 233 235 235 228 223 230 235 235 238 237 236 245 242 244 261 278 287 281 265 271 280 293 304
279 306 311 357 14 15 16 9 5 353 305 265 252 248 251 256 256 255 252 244 239 233 230 234 229 233 234 236 240 241 234 237 245 245 246 263 265 265 258 262 275 296 300
215 269 296 341 348 10 7 356 354 343 331 289 267 258 255 260 258 257 253 253 245 238 236 232 236 237 239 241 242 242 240 233 238 239 242 246 262 260 248 256 262 271 289
353 288 281 294 305 312 323 333 324 314 296 281 263 253 257 255 257 260 259 256 246 243 241 243 242 244 252 257 253 246 239 234 233 237 239 239 252 253 250 251 260 260 266
264 289 288 291 286 280 273 277 289 279 268 255 248 243 246 244 243 249 253 258 249 250 251 248 245 248 262 271 263 251 243 233 235 234 234 234 243 250 251 252 258 264 260
264 288 280 287 293 294 292 269 275 277 263 252 245 240 240 245 245 245 249 256 263 261 251 246 250 247 255 267 264 255 244 236 234 236 235 239 242 245 245 248 253 262 264
270 270 273 271 282 286 289 287 274 272 271 268 261 250 246 246 246 236 238 247 255 261 265 267 264 265 257 267 266 255 249 237 234 234 231 237 241 246 248 246 252 261 267
263 267 266 277 270 262 277 283 272 271 270 269 271 265 251 246 252 252 246 236 229 243 255 258 259 253 246 259 267 263 245 239 231 229 236 242 243 243 240 241 251 257 259
277 277 272 270 277 272 258 263 262 256 255 260 258 261 258 253 260 257 255 250 242 235 234 242 250 247 254 252 257 269 254 238 228 231 240 243 246 242 235 244 248 254 260
278 281 282 280 282 279 275 262 262 269 248 246 249 255 255 247 244 257 256 252 250 245 243 236 233 243 249 250 245 246 249 258 252 247 251 254 253 240 247 252 257 257 254
278 277 276 277 276 273 267 265 271 285 283 265 236 239 245 250 248 249 254 260 251 249 248 242 237 237 247 250 245 242 248 253 256 259 261 263 265 254 250 251 253 242 241
279 274 273 273 273 274 275 276 272 272 274 279 274 243 227 236 234 236 250 253 254 251 248 247 243 238 241 249 249 245 245 246 248 251 254 257 258 255 249 245 244 233 234
283 282 279 275 277 277 275 276 276 274 275 278 276 271 259 242 269 263 248 251 254 254 250 249 247 241 237 244 250 247 245 239 243 242 245 248 247 249 250 242 239 234 237
285 283 280 276 276 274 276 275 278 274 267 270 268 270 266 267 269 266 250 251 269 267 256 249 247 244 238 239 243 246 244 244 247 248 248 247 244 244 243 243 244 244 243
291 286 282 279 274 274 276 275 278 273 267 265 263 257 253 259 254 263 238 259 266 267 266 253 248 243 238 236 240 239 240 239 243 249 252 253 256 256 253 252 253 260 259
294 289 287 286 280 276 276 274 277 273 262 258 254 256 258 262 262 263 264 265 276 268 257 251 244 242 240 233 237 236 239 239 238 242 249 254 257 258 263 265 266 267 264
292 286 281 287 285 279 281 278 277 267 254 251 254 253 250 254 258 262 268 277 273 261 255 245 235 231 235 229 232 235 241 249 256 249 257 247 247 249 249 263 265 256 262
302 289 282 283 287 279 280 280 275 266 252 238 238 246 250 254 262 267 271 267 261 252 256 230 227 228 225 230 235 235 242 248 250 243 256 243 233 238 248 258 262 248 251
303 294 289 291 283 279 279 277 277 259 243 231 230 228 235 245 251 260 260 271 268 258 243 242 235 214 221 225 230 231 238 248 241 245 224 210 226 231 239 247 248 251 257
303 301 295 293 283 283 276 274 274 262 250 241 239 234 225 229 242 250 252 263 257 266 249 245 241 256 217 215 223 222 229 212 173 201 196 214 247 248 252 257 261 265 269
317 313 309 300 289 280 278 273 270 265 262 251 251 252 249 230 232 227 233 241 247 272 245 249 258 247 211 210 216 222 213 188 196 204 223 228 235 246 259 263 267 275 283
332 329 320 317 305 289 279 269 267 266 261 245 254 253 252 248 240 237 230 247 243 238 253 269 272 272 246 238 232 223 239 233 229 230 232 234 237 244 251 258 270 275 278
Height
5909 5908 5908 5906 5905 5906 5906 5908 5908 5909 5912 5913 5915 5918 5919 5921 5924 5925 5927 5928 5931 5932 5933 5932 5933 5935 5935 5937 5938 5940 5940 5939 5939 5939 5939 5939 5939 5939 5939 5939 5938 5938 5937
5911 5909 5909 5907 5906 5906 5907 5907 5907 5908 5909 5912 5913 5916 5919 5920 5922 5924 5925 5927 5928 5930 5931 5932 5933 5933 5935 5936 5938 5938 5939 5939 5941 5940 5940 5940 5940 5940 5939 5939 5938 5937 5937
5912 5911 5910 5908 5907 5906 5907 5907 5907 5908 5908 5910 5912 5915 5917 5918 5919 5920 5921 5924 5926 5928 5928 5930 5931 5932 5933 5935 5936 5936 5938 5938 5940 5940 5940 5939 5939 5940 5939 5939 5938 5937 5936
5912 5912 5911 5910 5909 5908 5907 5908 5908 5908 5908 5909 5910 5912 5914 5915 5916 5918 5921 5921 5923 5924 5925 5926 5928 5929 5930 5932 5933 5934 5935 5936 5937 5939 5939 5939 5939 5940 5939 5938 5938 5937 5936
5910 5911 5911 5911 5911 5909 5908 5907 5907 5907 5908 5909 5909 5910 5911 5912 5914 5915 5916 5917 5918 5919 5921 5922 5923 5925 5927 5928 5930 5931 5932 5933 5934 5936 5937 5938 5939 5938 5937 5937 5936 5935 5934
5910 5910 5910 5909 5909 5909 5908 5906 5905 5905 5905 5906 5907 5907 5907 5909 5911 5912 5912 5914 5915 5915 5915 5916 5918 5920 5922 5924 5925 5927 5929 5929 5930 5932 5935 5936 5936 5936 5935 5935 5933 5932 5933
5912 5911 5909 5908 5908 5907 5907 5905 5903 5902 5902 5902 5902 5903 5903 5903 5905 5907 5908 5910 5911 5913 5912 5912 5913 5915 5917 5919 5921 5922 5924 5926 5927 5929 5931 5932 5933 5933 5932 5932 5932 5931 5931
5912 5911 5910 5907 5904 5902 5902 5901 5900 5899 5898 5897 5897 5897 5898 5899 5900 5901 5902 5904 5905 5907 5911 5914 5913 5913 5914 5916 5917 5918 5918 5921 5923 5924 5925 5927 5928 5929 5929 5929 5929 5929 5929
5909 5909 5908 5906 5903 5899 5898 5900 5896 5894 5893 5893 5892 5892 5893 5893 5894 5896 5898 5900 5902 5904 5907 5909 5911 5912 5912 5911 5911 5913 5915 5916 5918 5920 5921 5921 5922 5924 5925 5926 5926 5925 5925
5905 5905 5905 5904 5903 5900 5899 5898 5895 5893 5890 5889 5888 5887 5887 5888 5888 5891 5893 5896 5897 5900 5902 5903 5903 5905 5905 5905 5905 5905 5907 5911 5912 5915 5917 5918 5919 5920 5922 5923 5923 5922 5922
5899 5899 5900 5899 5899 5898 5894 5896 5893 5891 5887 5887 5887 5885 5884 5884 5884 5883 5885 5889 5892 5893 5896 5899 5899 5898 5898 5899 5899 5899 5898 5902 5905 5909 5911 5913 5915 5916 5917 5919 5919 5919 5919
5894 5894 5894 5893 5893 5893 5890 5886 5887 5885 5883 5884 5883 5882 5882 5881 5883 5884 5883 5880 5880 5885 5890 5891 5894 5896 5892 5892 5891 5888 5889 5891 5894 5900 5905 5907 5909 5910 5910 5912 5913 5914 5915
5885 5884 5884 5885 5885 5885 5882 5877 5875 5871 5871 5874 5875 5876 5877 5877 5879 5880 5882 5881 5879 5878 5877 5879 5885 5889 5891 5889 5888 5887 5887 5887 5890 5895 5899 5901 5904 5904 5904 5905 5907 5908 5908
5874 5872 5871 5871 5873 5873 5871 5868 5862 5842 5862 5863 5866 5871 5872 5869 5869 5874 5875 5877 5877 5875 5873 5872 5872 5878 5882 5884 5883 5883 5885 5886 5889 5892 5894 5896 5898 5898 5899 5899 5901 5901 5902
5862 5861 5859 5858 5859 5861 5857 5853 5853 5855 5857 5856 5855 5860 5863 5865 5864 5864 5867 5872 5872 5872 5871 5870 5869 5869 5875 5879 5878 5878 5879 5882 5884 5886 5887 5890 5892 5893 5893 5893 5893 5895 5895
5849 5848 5846 5844 5842 5843 5843 5839 5845 5847 5849 5848 5847 5848 5852 5856 5856 5856 5858 5865 5865 5864 5866 5867 5866 5866 5867 5872 5875 5874 5874 5876 5878 5880 5882 5884 5885 5886 5885 5886 5887 5889 5890
5835 5834 5834 5833 5829 5827 5829 5826 5827 5832 5833 5835 5839 5842 5847 5847 5854 5853 5853 5855 5859 5858 5859 5861 5861 5861 5861 5865 5869 5869 5869 5870 5873 5874 5876 5878 5879 5881 5882 5882 5883 5883 5884
5824 5820 5818 5818 5818 5816 5812 5813 5813 5815 5819 5820 5824 5829 5834 5835 5843 5842 5844 5845 5850 5851 5852 5854 5855 5853 5855 5857 5861 5863 5863 5864 5867 5869 5870 5872 5873 5874 5875 5877 5878 5878 5878
5812 5809 5805 5802 5802 5802 5801 5797 5797 5798 5799 5803 5808 5816 5820 5825 5828 5830 5832 5835 5840 5843 5847 5847 5848 5847 5847 5849 5854 5856 5857 5858 5860 5862 5864 5866 5868 5869 5870 5871 5871 5871 5871
5795 5794 5791 5788 5785 5784 5786 5786 5782 5781 5781 5784 5790 5794 5802 5805 5810 5813 5821 5825 5827 5829 5830 5835 5839 5839 5840 5841 5847 5848 5849 5851 5852 5854 5856 5858 5860 5860 5863 5864 5864 5864 5863
5784 5779 5778 5777 5772 5769 5768 5768 5765 5762 5765 5767 5770 5775 5783 5789 5792 5797 5803 5807 5810 5809 5812 5822 5823 5826 5829 5832 5836 5836 5841 5843 5845 5846 5847 5848 5852 5853 5854 5856 5856 5855 5854
5770 5766 5766 5764 5760 5755 5752 5750 5748 5747 5749 5753 5758 5760 5764 5773 5775 5778 5788 5791 5791 5794 5792 5797 5804 5810 5815 5820 5824 5826 5831 5834 5835 5837 5835 5835 5839 5842 5843 5845 5843 5844 5845
5760 5757 5755 5753 5749 5742 5738 5737 5734 5735 5738 5741 5745 5748 5750 5757 5762 5766 5773 5773 5770 5770 5775 5779 5772 5775 5798 5806 5809 5816 5818 5820 5825 5826 5824 5829 5834 5835 5835 5834 5835 5837 5838
5751 5747 5744 5741 5738 5731 5727 5725 5723 5723 5726 5731 5735 5736 5738 5741 5745 5752 5757 5761 5759 5755 5765 5766 5767 5759 5760 5783 5793 5800 5805 5810 5815 5818 5820 5823 5826 5828 5829 5829 5829 5828 5827
5743 5738 5734 5730 5726 5723 5718 5715 5713 5715 5715 5719 5722 5723 5725 5729 5734 5740 5746 5750 5752 5747 5747 5764 5752 5764 5740 5763 5783 5788 5794 5801 5807 5809 5813 5814 5816 5819 5821 5822 5823 5822 5819
5738 5732 5726 5721 5717 5714 5711 5707 5705 5705 5707 5709 5712 5713 5716 5717 5722 5728 5735 5735 5736 5738 5744 5746 5746 5751 5757 5766 5773 5778 5783 5793 5796 5801 5803 5804 5806 5808 5809 5811 5813 5814 5813